Hourly Weather Roundup
Issued by NWS

Home | Current Version | Previous Version | Text Only | Print | Product List | Glossary On
Versions: 1 2 3 4 5 6 7 8 9 10 11 12 13 14 15 16 17 18 19 20 21 22 23 24 25 26 27 28 29 30 31 32 33 34 35 36 37 38 39 40 41 42 43 44 45 46 47 48 49 50
000
NZUS43 KILX 251110
HWRCRS

CRS HOURLY WEATHER ROUNDUP
NATIONAL WEATHER SERVICE, LINCOLN IL
600 AM CDT MON MAY 25 2015


CITY           SKY/WX    TMP DP  RH WIND       PRES   REMARKS
CHAMPAIGN      LGT RAIN  69  66  90 S20       29.92S
LAWRENCEVILLE  LGT RAIN  69  66  90 S14G26    30.02R
PEORIA         LGT RAIN  70  65  84 S15G24    29.83R
SPRINGFIELD    MOCLDY    69  65  86 S16G25    29.88R
$$


CITY           SKY/WX    TMP DP  RH WIND       PRES   REMARKS
BLOOMINGTON    CLOUDY    69  66  90 S25G31    29.89S
DECATUR        CLOUDY    70  65  84 S15G22    29.91R
EFFINGHAM      DRIZZLE   69  65  88 SE10G17   29.98R
FLORA          LGT RAIN  68  66  93 S15       29.99S
GALESBURG      DRIZZLE   64  63  96 SW8       29.83R
JACKSONVILLE   RAIN      70  66  89 S6        29.86S
LACON          CLOUDY    69  63  82 S15G23    29.82R
LINCOLN        CLOUDY    70  65  84 S13G21    29.86R
LITCHFIELD     CLOUDY    67  64  90 S23       29.92R

CITY           SKY/WX    TMP DP  RH WIND       PRES   REMARKS
MACOMB         CLOUDY    65  64  98 SW12      29.85R
MATTOON        LGT RAIN  68  66  93 S13       29.94R
MOLINE         CLOUDY    65  62  90 SW8       29.79R
OLNEY          LGT RAIN  68  64  88 S14G22    30.00R
PARIS          LGT RAIN  69  66  92 S17G29    29.98R
PONTIAC        CLOUDY    70  66  88 S24G32    29.87S
QUINCY         LGT RAIN  64  63  96 SW10      29.85R FOG
RANTOUL        CLOUDY    72  67  85 S16G24    29.92R
ROBINSON       LGT RAIN  68  66  92 S17       30.01R
TAYLORVILLE    CLOUDY    68  64  88 S17G24    29.91S
TERRE HAUTE    CLOUDY    69  66  90 S15G25    30.00R
$$


CITY           SKY/WX    TMP DP  RH WIND       PRES   REMARKS
BURLINGTON     CLOUDY    65  64  97 SW10      29.82R
CHICAGO        CLOUDY    70  62  76 S23G30    29.83S
DES MOINES     LGT RAIN  64  61  90 SW10      29.77S
EVANSVILLE     LGT RAIN  68  65  90 S10       30.06R
INDIANAPOLIS   CLOUDY    68  64  87 S15       30.01S
KANSAS CITY    PTCLDY    58  58 100 SW7       29.88R
MILWAUKEE      CLOUDY    57  55  93 SE5       29.82F FOG
ST LOUIS       MOCLDY    71  64  78 S10       29.93R
$$




USA.gov is the U.S. government's official web portal to all federal, state and local government web resources and services.